TKJ4AN UGTB-LTAC

Flight info

Callsign TKJ4AN
Flight time N/A
Altitude 36000
Route ZAGOT DCT NOLGA UN61 TBN UW71 ILHAN
Aircraft B38M/M-SDE1FGHILORVWXY/HB1

Departure

Time 2026-04-23 17:47
Airport Tbilisi International Airport (UGTB)

Arrival

Time N/A
Airport Esenboğa International Airport (LTAC)
Time Latitude Longitude Altitude Speed Heading
2026-04-23 17:25 41.67033 44.96134 1521 ft 0 kts 43°
2026-04-23 17:30 41.67033 44.96133 1529 ft 0 kts 43°
2026-04-23 17:31 41.67032 44.96133 1529 ft 0 kts 43°
2026-04-23 17:39 41.67023 44.96121 1521 ft 4 kts 46°
2026-04-23 17:40 41.67006 44.96094 1525 ft 4 kts 57°
2026-04-23 17:40 41.66994 44.96062 1523 ft 4 kts 78°
2026-04-23 17:40 41.66997 44.96032 1526 ft 3 kts 130°
2026-04-23 17:40 41.67002 44.96025 1522 ft 0 kts 133°
2026-04-23 17:42 41.67002 44.96024 1529 ft 0 kts 133°
2026-04-23 17:43 41.66998 44.96030 1525 ft 2 kts 134°
2026-04-23 17:44 41.66969 44.96070 1525 ft 10 kts 133°
2026-04-23 17:44 41.66908 44.96161 1529 ft 15 kts 127°
2026-04-23 17:44 41.66724 44.96417 1527 ft 22 kts 152°
2026-04-23 17:45 41.66573 44.96394 1527 ft 23 kts 192°
2026-04-23 17:45 41.66202 44.96308 1526 ft 29 kts 166°
2026-04-23 17:45 41.66039 44.96468 1529 ft 30 kts 135°
2026-04-23 17:46 41.65871 44.96600 1523 ft 6 kts 243°
2026-04-23 17:46 41.65847 44.96537 1524 ft 11 kts 256°
2026-04-23 17:46 41.65876 44.96413 1527 ft 19 kts 320°
2026-04-23 17:47 41.66028 44.96225 1524 ft 56 kts 317°
2026-04-23 17:47 41.66492 44.95642 1525 ft 128 kts 316°
2026-04-23 17:47 41.68226 44.93456 2357 ft 189 kts 316°
2026-04-23 17:48 41.69248 44.92176 3173 ft 209 kts 319°
2026-04-23 17:48 41.70306 44.90868 4035 ft 219 kts 317°
2026-04-23 17:48 41.71479 44.89405 4644 ft 241 kts 317°
2026-04-23 17:48 41.72749 44.87816 5331 ft 257 kts 315°
2026-04-23 17:49 41.74064 44.86168 6303 ft 259 kts 314°
2026-04-23 17:49 41.75353 44.84485 7278 ft 259 kts 305°
2026-04-23 17:49 41.76181 44.82406 8249 ft 250 kts 280°
2026-04-23 17:49 41.76388 44.80141 9296 ft 242 kts 266°
2026-04-23 17:50 41.76439 44.77885 10257 ft 243 kts 267°
2026-04-23 17:50 41.76572 44.73300 11933 ft 250 kts 269°
2026-04-23 17:50 41.76648 44.70970 12739 ft 251 kts 269°
2026-04-23 17:51 41.76729 44.68611 13509 ft 259 kts 269°
2026-04-23 17:51 41.76817 44.66111 13888 ft 279 kts 269°
2026-04-23 17:51 41.77019 44.60554 14487 ft 318 kts 269°
2026-04-23 17:52 41.77127 44.57530 14897 ft 331 kts 269°
2026-04-23 17:52 41.77342 44.51224 16136 ft 342 kts 269°
2026-04-23 17:52 41.77447 44.48020 16779 ft 347 kts 269°
2026-04-23 17:53 41.77654 44.41516 18139 ft 353 kts 270°
2026-04-23 17:53 41.77759 44.38219 18738 ft 355 kts 270°
2026-04-23 17:53 41.77863 44.34902 19345 ft 357 kts 270°
2026-04-23 17:54 41.77966 44.31579 19994 ft 358 kts 270°
2026-04-23 17:54 41.78067 44.28237 20585 ft 360 kts 270°
2026-04-23 17:54 41.78270 44.21492 21700 ft 364 kts 271°
2026-04-23 17:55 41.78381 44.14665 22797 ft 368 kts 262°
2026-04-23 17:55 41.77710 44.11415 23353 ft 369 kts 250°
2026-04-23 17:55 41.76772 44.08147 23801 ft 372 kts 250°
2026-04-23 17:56 41.75831 44.04914 24304 ft 373 kts 250°
2026-04-23 17:56 41.73903 43.98459 25129 ft 377 kts 250°
2026-04-23 17:56 41.72917 43.95198 25512 ft 380 kts 250°
2026-04-23 17:57 41.71919 43.91913 25973 ft 381 kts 250°
2026-04-23 17:57 41.70919 43.88629 26394 ft 383 kts 250°
2026-04-23 17:57 41.68899 43.82004 27199 ft 386 kts 250°
2026-04-23 17:58 41.67880 43.78669 27579 ft 388 kts 250°
2026-04-23 17:58 41.66856 43.75320 27957 ft 390 kts 250°
2026-04-23 17:58 41.65826 43.71959 28345 ft 392 kts 250°
2026-04-23 17:58 41.64791 43.68584 28723 ft 393 kts 250°
2026-04-23 17:59 41.63749 43.65190 29110 ft 395 kts 250°
2026-04-23 17:59 41.62703 43.61788 29487 ft 397 kts 250°
2026-04-23 17:59 41.61648 43.58362 29820 ft 399 kts 251°
2026-04-23 17:59 41.60593 43.54939 30231 ft 398 kts 251°
2026-04-23 18:00 41.59543 43.51537 30660 ft 396 kts 251°
2026-04-23 18:00 41.58495 43.48146 31095 ft 393 kts 251°
2026-04-23 18:00 41.57453 43.44780 31533 ft 392 kts 251°
2026-04-23 18:00 41.56414 43.41427 31947 ft 390 kts 251°
2026-04-23 18:01 41.55380 43.38091 32366 ft 388 kts 251°
2026-04-23 18:01 41.54350 43.34776 32808 ft 385 kts 251°
2026-04-23 18:01 41.53328 43.31491 33293 ft 382 kts 251°
2026-04-23 18:01 41.52312 43.28227 33756 ft 379 kts 251°
2026-04-23 18:02 41.51642 43.26081 34005 ft 378 kts 250°
2026-04-23 18:02 41.50302 43.21785 34311 ft 379 kts 250°
2026-04-23 18:02 41.49287 43.18537 34568 ft 379 kts 250°
2026-04-23 18:02 41.48269 43.15285 34797 ft 381 kts 250°
2026-04-23 18:03 41.47247 43.12024 35050 ft 381 kts 250°
2026-04-23 18:03 41.46223 43.08757 35323 ft 382 kts 250°
2026-04-23 18:03 41.45195 43.05478 35383 ft 386 kts 250°
2026-04-23 18:03 41.44158 43.02178 35597 ft 386 kts 249°
2026-04-23 18:04 41.43132 42.98865 35758 ft 388 kts 252°
2026-04-23 18:04 41.42127 42.91866 35738 ft 385 kts 260°
2026-04-23 18:05 41.41234 42.84845 35802 ft 385 kts 261°
2026-04-23 18:05 41.40368 42.77816 35804 ft 384 kts 261°
2026-04-23 18:06 41.39505 42.70786 35797 ft 385 kts 261°
2026-04-23 18:06 41.38637 42.63754 35783 ft 385 kts 261°
2026-04-23 18:07 41.37767 42.56737 35815 ft 385 kts 261°
2026-04-23 18:07 41.37038 42.50885 35801 ft 385 kts 261°
2026-04-23 18:08 41.36158 42.43853 35812 ft 384 kts 261°
2026-04-23 18:08 41.35280 42.36870 35800 ft 381 kts 261°
2026-04-23 18:09 41.34400 42.29915 35803 ft 381 kts 261°
2026-04-23 18:09 41.33599 42.22958 35781 ft 380 kts 268°
2026-04-23 18:10 41.33755 42.15909 35779 ft 382 kts 269°
2026-04-23 18:10 41.33761 42.08848 35806 ft 382 kts 268°
2026-04-23 18:11 41.33734 42.01785 35809 ft 381 kts 268°
2026-04-23 18:11 41.33698 41.94736 35873 ft 381 kts 268°
2026-04-23 18:12 41.33665 41.88910 35861 ft 377 kts 268°
2026-04-23 18:12 41.33648 41.86208 35842 ft 378 kts 268°
2026-04-23 18:13 41.33636 41.84225 35827 ft 377 kts 268°
2026-04-23 18:13 41.33589 41.77203 35877 ft 380 kts 268°
2026-04-23 18:14 41.33540 41.70493 35902 ft 378 kts 268°
2026-04-23 18:14 41.33485 41.63482 35862 ft 379 kts 268°
2026-04-23 18:15 41.33425 41.56454 35896 ft 380 kts 268°
2026-04-23 18:15 41.33361 41.49432 35924 ft 379 kts 268°
2026-04-23 18:16 41.33293 41.42455 35893 ft 376 kts 268°
2026-04-23 18:16 41.33221 41.35400 35907 ft 376 kts 268°
2026-04-23 18:17 41.33105 41.24959 35920 ft 376 kts 268°
2026-04-23 18:17 41.33023 41.17990 35928 ft 376 kts 268°
2026-04-23 18:18 41.32936 41.11030 35940 ft 377 kts 268°
2026-04-23 18:18 41.32845 41.04064 35986 ft 376 kts 267°
2026-04-23 18:19 41.32751 40.97124 35953 ft 374 kts 267°
2026-04-23 18:19 41.32652 40.90205 35958 ft 374 kts 267°
2026-04-23 18:20 41.32550 40.83287 35950 ft 374 kts 267°
2026-04-23 18:20 41.32443 40.76362 35956 ft 374 kts 267°
2026-04-23 18:21 41.32332 40.69443 35956 ft 374 kts 267°
2026-04-23 18:21 41.32237 40.63694 35954 ft 374 kts 267°
2026-04-23 18:22 41.32118 40.56779 35981 ft 374 kts 267°
2026-04-23 18:22 41.31996 40.49867 35952 ft 373 kts 267°
2026-04-23 18:23 41.31805 40.39519 35945 ft 373 kts 267°
2026-04-23 18:24 41.31604 40.29164 35947 ft 373 kts 267°
2026-04-23 18:25 41.31395 40.18850 35952 ft 373 kts 266°
2026-04-23 18:25 41.31249 40.11905 35977 ft 373 kts 266°
2026-04-23 18:26 41.31101 40.05045 35948 ft 373 kts 266°
2026-04-23 18:26 41.30948 39.98142 35956 ft 374 kts 266°
2026-04-23 18:27 41.30790 39.91235 35965 ft 373 kts 266°
2026-04-23 18:27 41.30629 39.84336 35965 ft 374 kts 266°
2026-04-23 18:28 41.30463 39.77429 35978 ft 373 kts 266°
2026-04-23 18:28 41.30293 39.70530 35995 ft 374 kts 266°
2026-04-23 18:29 41.30119 39.63624 36003 ft 374 kts 266°
2026-04-23 18:29 41.29941 39.56719 35984 ft 373 kts 266°
2026-04-23 18:30 41.29759 39.49823 35991 ft 373 kts 266°
2026-04-23 18:30 41.29573 39.42930 35980 ft 373 kts 266°
2026-04-23 18:31 41.29384 39.36081 35977 ft 373 kts 266°
2026-04-23 18:31 41.29190 39.29187 35992 ft 373 kts 266°
2026-04-23 18:32 41.28991 39.22289 35991 ft 373 kts 266°
2026-04-23 18:32 41.28788 39.15398 35980 ft 373 kts 265°
2026-04-23 18:33 41.28582 39.08499 35981 ft 373 kts 265°
2026-04-23 18:33 41.28371 39.01601 35972 ft 373 kts 265°
2026-04-23 18:34 41.28156 38.94704 35976 ft 373 kts 265°
2026-04-23 18:34 41.27937 38.87809 35959 ft 373 kts 265°
2026-04-23 18:35 41.27717 38.81009 35978 ft 373 kts 265°
2026-04-23 18:35 41.27489 38.74111 35994 ft 374 kts 265°
2026-04-23 18:36 41.27259 38.67247 35983 ft 374 kts 265°
2026-04-23 18:36 41.27022 38.60326 35983 ft 375 kts 265°
2026-04-23 18:37 41.26782 38.53412 35984 ft 375 kts 265°
2026-04-23 18:37 41.26537 38.46492 35984 ft 375 kts 264°
2026-04-23 18:38 41.26288 38.39575 35986 ft 375 kts 264°
2026-04-23 18:38 41.26035 38.32657 35990 ft 375 kts 264°
2026-04-23 18:39 41.25777 38.25722 35995 ft 376 kts 264°
2026-04-23 18:39 41.25515 38.18780 35994 ft 376 kts 264°
2026-04-23 18:40 41.25249 38.11835 35991 ft 376 kts 264°
2026-04-23 18:40 41.24978 38.04891 35991 ft 376 kts 264°
2026-04-23 18:41 41.24703 37.97944 35983 ft 376 kts 264°
2026-04-23 18:41 41.24424 37.91004 35979 ft 376 kts 264°
2026-04-23 18:42 41.24141 37.84056 36002 ft 377 kts 264°
2026-04-23 18:42 41.23632 37.77146 35972 ft 373 kts 252°
2026-04-23 18:43 41.22262 37.70486 35992 ft 375 kts 256°
2026-04-23 18:43 41.21058 37.63788 35983 ft 375 kts 256°
2026-04-23 18:44 41.20260 37.59280 35982 ft 375 kts 256°